Location: G�ppingen
(48.7089°N, 9.6563°E)
Time: 18:17:25
(UTC+01:00)

DELFI C3 - Visible Passes

Search period start: 20 March 2019 00:00
Search period end: 30 March 2019 00:00
Orbit: 536 x 556 km, 97.5° (Epoch: 19 March)

Date Brightness Start Highest point End Pass type
(mag) Time Alt. Az. Time Alt. Az. Time Alt. Az.
20 Mar ? 19:42:57 18° E 19:44:17 22° ENE 19:47:19 10° NNE visible
20 Mar ? 21:18:34 36° WSW 21:18:46 36° W 21:22:24 10° NNW visible
21 Mar ? 19:37:18 16° E 19:38:51 20° ENE 19:41:42 10° NNE visible
21 Mar ? 21:12:56 40° WSW 21:13:16 42° W 21:16:59 10° NNW visible
22 Mar ? 19:31:40 13° E 19:33:26 18° ENE 19:36:04 10° NNE visible
22 Mar ? 21:07:17 45° SW 21:07:47 48° W 21:11:34 10° NNW visible
23 Mar ? 19:26:00 11° E 19:28:01 16° ENE 19:30:23 10° NNE visible
23 Mar ? 21:01:39 48° SW 21:02:17 55° W 21:06:08 10° NNW visible
24 Mar ? 19:20:31 10° E 19:22:36 14° ENE 19:24:40 10° NNE visible
24 Mar ? 20:55:59 49° SSW 20:56:48 64° W 21:00:41 10° NNW visible
25 Mar ? 19:15:28 10° E 19:17:10 13° ENE 19:18:53 10° NNE visible
25 Mar ? 20:50:20 48° S 20:51:18 74° WSW 20:55:13 10° NNW visible
26 Mar ? 19:10:34 10° ENE 19:11:46 11° ENE 19:12:58 10° NE visible
26 Mar ? 20:44:41 45° S 20:45:50 85° W 20:49:44 10° NNW visible
27 Mar ? 20:39:02 41° SSE 20:40:20 84° ENE 20:44:15 10° NNW visible
28 Mar ? 20:33:22 36° SSE 20:34:51 73° ENE 20:38:45 10° N visible
28 Mar ? 22:09:00 10° WSW 22:10:02 11° W 22:11:06 10° WNW visible
29 Mar ? 20:27:43 32° SE 20:29:22 64° ENE 20:33:14 10° N visible
29 Mar ? 22:03:20 11° WSW 22:04:29 13° W 22:06:12 10° WNW visible
